EW7630 Weather Reports


Display with metric or nautical units.
time (UTC)temp
F
wind
direction
speed
MPH
gust
MPH
rain 1hr
in
rain 24hr
in
rain mn
in
humidity
%
barometer
mb
20260906124026 71 0.0 0.0 0.00 0.00 0.00 93 1014.5
20260906123027 71 149 2.0 3.0 0.00 0.00 0.00 93 1014.5
20260906122019 71 258 2.0 4.0 0.00 0.00 0.00 93 1014.4
20260906121021 71 132 1.0 3.0 0.00 0.00 0.00 93 1014.4
20260906120024 71 203 1.0 3.0 0.00 0.00 0.00 93 1014.3
20260906115045 71 0.0 0.0 0.00 0.00 0.00 93 1014.3
20260906114048 70 27 1.0 3.0 0.00 0.00 0.00 93 1014.2
20260906113029 70 73 2.0 4.0 0.00 0.00 0.00 93 1013.9
20260906112052 70 26 1.0 3.0 0.00 0.00 0.00 93 1013.7
20260906111034 70 0 1.0 3.0 0.00 0.00 0.00 92 1013.5
20260906110030 71 0.0 0.0 0.00 0.00 0.00 92 1013.4
20260906105034 71 254 1.0 3.0 0.00 0.00 0.00 92 1013.4
20260906104032 71 335 1.0 3.0 0.00 0.00 0.00 91 1013.4
20260906103035 71 201 1.0 3.0 0.00 0.00 0.00 91 1013.3
20260906102017 72 0.0 0.0 0.00 0.00 0.00 91 1013.3
20260906101026 72 276 2.0 3.0 0.00 0.00 0.00 90 1013.2
20260906100023 72 328 1.0 3.0 0.00 0.00 0.00 90 1013.1
20260906095018 72 26 1.0 3.0 0.00 0.00 0.00 90 1013.0
20260906094026 73 84 1.0 3.0 0.00 0.00 0.00 89 1012.9
20260906093048 73 25 1.0 3.0 0.00 0.00 0.00 89 1012.8
20260906092030 73 298 1.0 3.0 0.00 0.00 0.00 89 1013.0
20260906091032 74 225 0.0 2.0 0.00 0.00 0.00 89 1012.9
20260906090035 74 8 2.0 6.0 0.00 0.00 0.00 89 1013.0
20260906085018 74 222 1.0 4.0 0.00 0.00 0.00 89 1013.0
20260906084021 75 337 2.0 4.0 0.00 0.00 0.00 89 1012.9
20260906083022 75 4 1.0 3.0 0.00 0.00 0.00 89 1012.8
20260906082026 75 5 2.0 3.0 0.00 0.00 0.00 89 1012.7
20260906081024 76 0.0 0.0 0.00 0.00 0.00 89 1012.6
20260906080025 76 12 1.0 3.0 0.00 0.00 0.00 89 1012.7
20260906075028 76 348 2.0 3.0 0.00 0.00 0.00 88 1012.7
20260906074025 77 93 1.0 2.0 0.00 0.00 0.00 88 1012.6
20260906073021 77 101 1.0 3.0 0.00 0.00 0.00 87 1012.7
20260906072018 77 202 1.0 4.0 0.00 0.00 0.00 87 1012.8
20260906071019 77 281 2.0 4.0 0.00 0.00 0.00 87 1012.7
20260906070022 78 246 1.0 2.0 0.00 0.00 0.00 87 1012.8
20260906065023 78 113 0.0 2.0 0.00 0.00 0.00 86 1012.8
20260906064020 78 47 1.0 3.0 0.00 0.00 0.00 85 1012.8
20260906063022 78 163 2.0 5.0 0.00 0.00 0.00 86 1012.8
20260906062023 79 174 1.0 3.0 0.00 0.00 0.00 86 1012.7
20260906061026 79 204 1.0 3.0 0.00 0.00 0.00 86 1012.8
20260906060023 79 166 1.0 4.0 0.00 0.00 0.00 86 1012.6
20260906055055 80 157 1.0 3.0 0.00 0.00 0.00 86 1012.6
20260906054100 80 172 1.0 4.0 0.00 0.00 0.00 85 1012.7
20260906053018 80 124 1.0 3.0 0.00 0.00 0.00 85 1012.6
20260906052026 81 205 2.0 3.0 0.00 0.00 0.00 84 1012.5
20260906051043 81 215 2.0 3.0 0.00 0.00 0.00 84 1012.4
20260906050019 81 68 0.0 2.0 0.00 0.00 0.00 84 1012.3
20260906045027 81 312 1.0 2.0 0.00 0.00 0.00 84 1012.2
20260906044029 82 294 1.0 2.0 0.00 0.00 0.00 84 1012.1
20260906043031 82 46 0.0 2.0 0.00 0.00 0.00 84 1012.1
20260906042053 82 0 0.0 2.0 0.00 0.00 0.00 83 1011.9
20260906041037 82 0 0.0 2.0 0.00 0.00 0.00 83 1012.0
20260906040019 82 0 0.0 1.0 0.00 0.00 0.00 83 1011.9
20260906035022 82 0.0 0.0 0.00 0.00 0.00 82 1011.8
20260906034025 82 0.0 0.0 0.00 0.00 0.00 82 1011.7
20260906033027 82 0 0.0 2.0 0.00 0.00 0.00 81 1011.7
20260906032029 82 0.0 1.0 0.00 0.00 0.00 81 1011.6
20260906031029 83 0.0 0.0 0.00 0.00 0.00 80 1011.5
20260906030030 83 0 0.0 2.0 0.00 0.00 0.00 79 1011.4
20260906025027 83 0.0 0.0 0.00 0.00 0.00 79 1011.3
20260906024024 83 0.0 0.0 0.00 0.00 0.00 79 1011.2
20260906023020 83 0.0 0.0 0.00 0.00 0.00 78 1011.0
20260906022034 83 0.0 0.0 0.00 0.00 0.00 78 1011.0
20260906021031 83 0.0 0.0 0.00 0.00 0.00 78 1010.9
20260906020033 84 0.0 0.0 0.00 0.00 0.00 77 1010.6
20260906015032 84 0.0 0.0 0.00 0.00 0.00 77 1010.6
20260906014027 84 0 0.0 1.0 0.00 0.00 0.00 76 1010.5
20260906013028 84 0.0 0.0 0.00 0.00 0.00 74 1010.4
20260906012050 84 0 0.0 1.0 0.00 0.00 0.00 73 1010.4
20260906011032 85 0.0 0.0 0.00 0.00 0.00 71 1010.2
20260906010034 85 0.0 0.0 0.00 0.00 0.00 70 1010.1
20260906005035 86 0.0 0.0 0.00 0.00 0.00 68 1010.0
20260906004018 86 0.0 0.0 0.00 0.00 0.00 67 1010.0
20260906003018 87 23 0.0 2.0 0.00 0.00 0.00 64 1010.0
20260906002026 88 348 1.0 2.0 0.00 0.00 0.00 63 1010.1
20260906001022 88 0.0 0.0 0.00 0.00 0.00 62 1010.1
20260906000020 89 68 0.0 2.0 0.00 0.00 0.00 61 1010.1
20260905235028 90 258 1.0 2.0 0.00 0.00 0.00 59 1010.1
20260905234052 91 279 0.0 2.0 0.00 0.00 0.00 57 1010.1
20260905233032 91 102 1.0 3.0 0.00 0.00 0.00 57 1010.0
20260905232029 92 266 2.0 2.0 0.00 0.00 0.00 56 1010.0
20260905231053 92 0.0 0.0 0.00 0.00 0.00 57 1010.0
20260905230029 91 161 0.0 2.0 0.00 0.00 0.00 59 1010.2
20260905225031 91 137 1.0 2.0 0.00 0.00 0.00 60 1010.3
20260905224033 94 152 3.0 6.0 0.00 0.00 0.00 57 1010.4
20260905223034 94 131 1.0 3.0 0.00 0.00 0.00 56 1010.3
20260905222054 95 155 2.0 3.0 0.00 0.00 0.00 55 1009.9
20260905221018 95 274 3.0 5.0 0.00 0.00 0.00 53 1010.2
20260905220038 95 276 2.0 4.0 0.00 0.00 0.00 55 1009.9
20260905215026 95 243 2.0 4.0 0.00 0.00 0.00 52 1009.8
20260905214022 97 260 3.0 5.0 0.00 0.00 0.00 45 1009.8
20260905213020 98 291 2.0 3.0 0.00 0.00 0.00 49 1009.8
20260905212027 94 11 4.0 5.0 0.00 0.00 0.00 56 1010.0
20260905211050 100 335 5.0 8.0 0.00 0.00 0.00 48 1010.0
20260905210031 100 0 3.0 6.0 0.00 0.00 0.00 48 1010.1
20260905205034 99 349 2.0 4.0 0.00 0.00 0.00 49 1010.1
20260905204018 99 337 3.0 5.0 0.00 0.00 0.00 50 1010.1
20260905203020 97 347 2.0 4.0 0.00 0.00 0.00 49 1010.3
20260905202021 98 9 2.0 4.0 0.00 0.00 0.00 50 1010.3
20260905201023 99 244 2.0 4.0 0.00 0.00 0.00 46 1010.5
20260905200026 101 306 3.0 5.0 0.00 0.00 0.00 47 1010.5
20260905195027 0 248 2.0 2.0 0.00 0.00 0.00 1010.5
20260905194028 100 348 4.0 5.0 0.00 0.00 0.00 48 1010.6
20260905193030 99 273 3.0 6.0 0.00 0.00 0.00 47 1010.8
20260905192027 99 325 3.0 5.0 0.00 0.00 0.00 48 1010.9
20260905191022 99 264 4.0 9.0 0.00 0.00 0.00 47 1011.0
20260905190019 99 315 3.0 5.0 0.00 0.00 0.00 49 1011.2
20260905185021 99 261 2.0 7.0 0.00 0.00 0.00 48 1011.3
20260905184037 98 315 3.0 5.0 0.00 0.00 0.00 50 1011.4
20260905183020 98 341 2.0 4.0 0.00 0.00 0.00 50 1011.4
20260905182034 98 278 2.0 3.0 0.00 0.00 0.00 52 1011.6
20260905181018 98 276 3.0 7.0 0.00 0.00 0.00 51 1011.7
20260905180020 99 0 2.0 5.0 0.00 0.00 0.00 53 1011.8
20260905175022 100 256 3.0 5.0 0.00 0.00 0.00 52 1011.8
20260905174024 99 63 2.0 3.0 0.00 0.00 0.00 53 1011.8
20260905173020 100 339 2.0 5.0 0.00 0.00 0.00 52 1011.9
20260905172113 98 179 2.0 3.0 0.00 0.00 0.00 55 1011.9
20260905171034 98 356 2.0 5.0 0.00 0.00 0.00 54 1012.2
20260905170051 97 239 2.0 4.0 0.00 0.00 0.00 56 1012.2
20260905165027 97 192 1.0 3.0 0.00 0.00 0.00 59 1012.4
20260905164025 95 244 2.0 5.0 0.00 0.00 0.00 61 1012.6
20260905163020 95 302 3.0 4.0 0.00 0.00 0.00 61 1012.7
20260905162033 94 292 2.0 6.0 0.00 0.00 0.00 61 1012.6
20260905161018 94 266 4.0 5.0 0.00 0.00 0.00 61 1012.7
20260905160041 94 271 2.0 5.0 0.00 0.00 0.00 61 1012.7
20260905155043 93 224 2.0 3.0 0.00 0.00 0.00 63 1012.7
20260905154024 93 183 2.0 4.0 0.00 0.00 0.00 63 1012.7
20260905153027 92 268 2.0 5.0 0.00 0.00 0.00 65 1012.7
20260905152029 91 276 3.0 5.0 0.00 0.00 0.00 65 1012.7
20260905151031 91 280 3.0 4.0 0.00 0.00 0.00 65 1012.7
20260905150033 91 8 3.0 5.0 0.00 0.00 0.00 63 1012.6
20260905145033 90 262 2.0 5.0 0.00 0.00 0.00 64 1012.6
20260905144058 90 281 2.0 5.0 0.00 0.00 0.00 66 1012.5
20260905143017 89 346 2.0 5.0 0.00 0.00 0.00 68 1012.5
20260905142026 88 305 2.0 6.0 0.00 0.00 0.00 69 1012.6
20260905141022 87 287 3.0 4.0 0.00 0.00 0.00 71 1012.6
20260905140019 86 0.0 0.0 0.00 0.00 0.00 74 1012.5
20260905135028 85 0.0 0.0 0.00 0.00 0.00 77 1012.5
20260905134029 83 0.0 0.0 0.00 0.00 0.00 80 1012.5
20260905133031 81 0.0 0.0 0.00 0.00 0.00 82 1012.4
20260905132033 80 291 2.0 4.0 0.00 0.00 0.00 87 1012.4
20260905131017 78 0.0 0.0 0.00 0.00 0.00 92 1012.5
20260905130020 78 0.0 0.0 0.00 0.00 0.00 93 1012.4
20260905125022 77 0.0 0.0 0.00 0.00 0.00 93 1012.3